[[{"header":{"parameterUnit":"m.s-1","parameterCategory":1,"la1":30.2991,"la2":30.254,"lo1":-89.0895,"lo2":-89.0444,"dy":0.0017,"dx":0.0017,"nx":28,"ny":28,"refTime":"2025-08-27T03:00:00:Z","depth":0,"parameterNumber":2,"parameterNumberName":"U-component_of_WINDS"},"data":[0,0,0,0,0,0,0,0,0,0,0,0,0,0,0,0,0,0,0,0,0,0,0,0,0,0,0,0,0,0,0,0,0,0,0,0,0,0,0,0,0,0,0,0,0,0,0,0,0,0,0,0,0,0,0,0,0,0,-0.4019,-0.4019,0,-0.3997,-0.3997,-0.3997,-0.3974,-0.3973,-0.3973,-0.3973,-0.3951,-0.395,-0.395,0,0,0,0,0,0,0,0,0,0,0,0,0,-0.4042,-0.4041,-0.4019,-0.4019,-0.4018,-0.3997,-0.3997,-0.3997,-0.3974,-0.3973,-0.3973,-0.3973,-0.3951,-0.395,-0.395,0,0,0,0,0,0,0,0,0,0,0,0,0,-0.4027,-0.4041,-0.4019,-0.4005,-0.4003,-0.3997,-0.3997,-0.3997,-0.3974,-0.3973,-0.3973,-0.3973,-0.3951,-0.395,-0.395,-0.3957,0,0,-0.3949,-0.3948,0,0,0,0,0,0,0,0,-0.4028,-0.4026,-0.4007,-0.4006,-0.4004,-0.3988,-0.3997,-0.3983,-0.3974,-0.3985,-0.3973,-0.3972,-0.3963,-0.3962,-0.3959,-0.3956,-0.3955,-0.3949,-0.3948,-0.3948,-0.3948,0,0,0,0,0,0,0,-0.4029,-0.4027,-0.401,-0.4007,-0.4005,-0.3999,-0.3997,-0.3994,-0.3977,-0.3984,-0.3982,-0.398,-0.3962,-0.3959,-0.3958,-0.3955,-0.3949,-0.3948,-0.3948,-0.3948,-0.3957,-0.3958,0,0,0,0,0,0,-0.4032,-0.4028,-0.4011,-0.401,-0.4015,-0.3999,-0.3996,-0.3993,-0.3977,-0.3974,-0.398,-0.3979,-0.396,-0.3959,-0.3957,-0.3965,-0.3948,-0.3948,-0.3947,-0.3957,-0.3957,-0.3958,0,0,0,0,0,0,-0.4033,-0.4031,-0.4012,-0.4018,-0.4016,-0.4,-0.3996,-0.3993,-0.399,-0.3974,-0.3971,-0.398,-0.396,-0.3958,-0.3957,-0.3964,-0.3948,-0.3947,-0.3956,-0.3957,-0.3958,-0.398,0,0,0,0,0,0,-0.4033,-0.4031,-0.4033,-0.4019,-0.4015,-0.4012,-0.3997,-0.3993,-0.3989,-0.3987,-0.3974,-0.3971,-0.3959,-0.3958,-0.3957,-0.3963,-0.3947,-0.3956,-0.3957,-0.3958,-0.3979,-0.3982,-0.3984,0,0,0,0,0,-0.4034,-0.404,-0.4034,-0.4032,-0.4018,-0.4013,-0.4011,-0.3998,-0.399,-0.3992,-0.3982,-0.3971,-0.3963,-0.3958,-0.3957,-0.3963,-0.3955,-0.3956,-0.3957,-0.3978,-0.3981,-0.3984,0,0,0,0,0,0,-0.4056,-0.4038,-0.403,-0.4032,-0.4024,-0.4009,-0.4011,-0.4002,-0.3996,-0.3994,-0.3978,-0.3975,-0.3977,-0.3969,-0.3964,-0.3969,-0.3958,-0.3959,-0.3974,-0.3977,-0.398,-0.3981,-0.3946,0,0,0,0,0,-0.4061,-0.4058,-0.4043,-0.4046,-0.4042,-0.4028,-0.4025,-0.4015,-0.4007,-0.4003,-0.3993,-0.3985,-0.3981,-0.3978,-0.3974,-0.3978,-0.3975,-0.3981,-0.3984,-0.3986,-0.3987,-0.399,-0.3993,-0.3962,-0.3962,-0.3962,0,0,-0.4071,-0.4061,-0.406,-0.405,-0.4043,-0.4041,-0.4025,-0.4023,-0.4021,-0.4003,-0.4002,-0.3994,-0.3984,-0.3987,-0.3987,-0.3981,-0.3995,-0.3988,-0.399,-0.3989,-0.3991,-0.3994,-0.3997,-0.3963,-0.3963,-0.3962,0,0,-0.4089,-0.4081,-0.4083,-0.4076,-0.4066,-0.4056,-0.4056,-0.4043,-0.4037,-0.4036,-0.4022,-0.402,-0.4013,-0.4007,-0.4003,-0.402,-0.4009,-0.4018,-0.4032,-0.4035,-0.4038,-0.404,-0.4046,-0.4049,-0.402,-0.402,-0.402,0,-0.4103,-0.4099,-0.4085,-0.4084,-0.408,-0.4064,-0.4066,-0.406,-0.4049,-0.4046,-0.404,-0.4031,-0.4023,-0.4024,-0.4028,-0.4025,-0.4026,-0.402,-0.4038,-0.404,-0.4042,-0.4048,-0.4051,-0.4021,-0.4021,-0.4021,-0.402,0,-0.4118,-0.4115,-0.4118,-0.4108,-0.4104,-0.4105,-0.4091,-0.4089,-0.408,-0.4072,-0.4071,-0.4061,-0.4055,-0.4054,-0.4045,-0.4054,-0.4051,-0.4041,-0.403,-0.4047,-0.4052,-0.4054,-0.4023,-0.4022,-0.4022,-0.4021,0,0,-0.4148,-0.4131,-0.4132,-0.4127,-0.4115,-0.4113,-0.4113,-0.4107,-0.4106,-0.4099,-0.4099,-0.4094,-0.4086,-0.4081,-0.4071,-0.4074,-0.4088,-0.4064,-0.4064,-0.407,-0.4099,-0.4106,-0.4109,-0.4082,-0.4082,-0.4082,-0.41,0,-0.4165,-0.4164,-0.4152,-0.4155,-0.4153,-0.4137,-0.4138,-0.413,-0.4122,-0.412,-0.4111,-0.4108,-0.4097,-0.4094,-0.4096,-0.4086,-0.4094,-0.4085,-0.4082,-0.4082,-0.4086,-0.4112,-0.4119,-0.4137,-0.4102,-0.4102,-0.4102,0,-0.4183,-0.4177,-0.4181,-0.4169,-0.4167,-0.4168,-0.4162,-0.4159,-0.4151,-0.4145,-0.414,-0.413,-0.413,-0.4118,-0.4118,-0.4112,-0.4111,-0.4106,-0.4106,-0.4106,-0.4094,-0.4113,-0.4142,-0.4144,-0.4105,-0.4105,-0.4105,0,-0.4206,-0.4199,-0.42,-0.4197,-0.4183,-0.4184,-0.4178,-0.4169,-0.4167,-0.4161,-0.4159,-0.4154,-0.4151,-0.4147,-0.4136,-0.4128,-0.4137,-0.4125,-0.4133,-0.4133,-0.4136,-0.4136,-0.4165,-0.4134,-0.4134,-0.4134,-0.4134,0,-0.4226,-0.4229,-0.4211,-0.4212,-0.4214,-0.42,-0.4204,-0.4196,-0.4189,-0.4188,-0.4174,-0.4174,-0.4158,-0.4156,-0.4147,-0.4149,-0.4148,-0.4143,-0.4141,-0.4145,-0.4146,-0.4144,-0.4143,-0.4134,-0.4134,-0.4134,-0.4134,0,-0.4252,-0.424,-0.4241,-0.4228,-0.4225,-0.4227,-0.4216,-0.4217,-0.4208,-0.4208,-0.4207,-0.4193,-0.4191,-0.4178,-0.4173,-0.4166,-0.4172,-0.4167,-0.4175,-0.4173,-0.4182,-0.4182,-0.4212,-0.4216,-0.4182,-0.4182,-0.4182,0,-0.4266,-0.4268,-0.4255,-0.4254,-0.4249,-0.4247,-0.4244,-0.423,-0.4228,-0.4219,-0.4221,-0.4217,-0.4213,-0.421,-0.42,-0.4195,-0.419,-0.4201,-0.419,-0.4194,-0.4192,-0.4192,-0.4192,-0.4204,-0.4204,-0.4205,-0.4205,0,-0.4292,-0.4286,-0.4283,-0.4277,-0.4275,-0.427,-0.4264,-0.4264,-0.4249,-0.4247,-0.4245,-0.4242,-0.4236,-0.4233,-0.4227,-0.4221,-0.4211,-0.4209,-0.4211,-0.4215,-0.422,-0.4218,-0.4182,-0.4208,-0.4208,-0.4208,-0.4208,-0.4207,-0.4313,-0.4314,-0.4305,-0.4302,-0.4297,-0.4292,-0.4292,-0.4284,-0.4281,-0.4276,-0.4268,-0.4266,-0.4258,-0.425,-0.4245,-0.4244,-0.4238,-0.424,-0.4241,-0.4242,-0.4244,-0.422,-0.4242,-0.4242,-0.4242,-0.4242,-0.4242,0,-0.4338,-0.4332,-0.433,-0.4322,-0.432,-0.4311,-0.4304,-0.4303,-0.4302,-0.4296,-0.4292,-0.429,-0.4286,-0.4276,-0.4272,-0.4273,-0.4269,-0.4273,-0.4273,-0.4272,-0.4249,-0.4248,-0.4277,-0.4277,-0.4277,-0.4277,-0.4277,-0.4277,-0.4352,-0.4353,-0.4347,-0.4346,-0.434,-0.4338,-0.4336,-0.4331,-0.4326,-0.4324,-0.4321,-0.4315,-0.4307,-0.4302,-0.4299,-0.4296,-0.4296,-0.4302,-0.4297,-0.4277,-0.4273,-0.427,-0.4269,-0.4302,-0.4302,-0.432,-0.432,-0.432]},{"header":{"parameterUnit":"m.s-1","parameterCategory":1,"la1":30.2991,"la2":30.254,"lo1":-89.0895,"lo2":-89.0444,"dy":0.0017,"dx":0.0017,"nx":28,"ny":28,"refTime":"2025-08-27T03:00:00:Z","depth":0,"parameterNumber":3,"parameterNumberName":"V-component_of_WINDS"},"data":[0,0,0,0,0,0,0,0,0,0,0,0,0,0,0,0,0,0,0,0,0,0,0,0,0,0,0,0,0,0,0,0,0,0,0,0,0,0,0,0,0,0,0,0,0,0,0,0,0,0,0,0,0,0,0,0,0,0,4.279,4.2791,0,4.2813,4.2813,4.2813,4.2761,4.276,4.2758,4.2756,4.2777,4.2779,4.2781,0,0,0,0,0,0,0,0,0,0,0,0,0,4.2699,4.2701,4.279,4.2791,4.2791,4.2813,4.2813,4.2813,4.2762,4.276,4.2758,4.2756,4.2776,4.2779,4.2781,0,0,0,0,0,0,0,0,0,0,0,0,0,4.2732,4.2701,4.279,4.2768,4.2766,4.2813,4.2813,4.2814,4.2762,4.276,4.2757,4.2755,4.2776,4.2779,4.2782,4.2851,0,0,4.2791,4.2793,0,0,0,0,0,0,0,0,4.273,4.2735,4.2771,4.2769,4.2767,4.2782,4.2788,4.2826,4.2763,4.2763,4.2756,4.2754,4.278,4.2783,4.2793,4.2852,4.2852,4.2792,4.2793,4.2795,4.2796,0,0,0,0,0,0,0,4.2728,4.2734,4.2799,4.2771,4.2769,4.2755,4.2757,4.2795,4.2785,4.2763,4.2759,4.2763,4.2779,4.279,4.2793,4.2853,4.2791,4.2794,4.2796,4.2797,4.2967,4.2969,0,0,0,0,0,0,4.2729,4.2732,4.2798,4.28,4.2742,4.2759,4.2761,4.278,4.2785,4.2783,4.2765,4.276,4.2786,4.2789,4.2793,4.2872,4.2795,4.2798,4.2799,4.2964,4.2967,4.297,0,0,0,0,0,0,4.2727,4.2735,4.2797,4.2765,4.2772,4.2763,4.2784,4.2781,4.2792,4.2786,4.2784,4.2778,4.2784,4.2789,4.2836,4.2872,4.2799,4.2802,4.2961,4.2965,4.2969,4.3032,0,0,0,0,0,0,4.2724,4.2735,4.2762,4.2766,4.2774,4.2841,4.2787,4.2784,4.2798,4.2792,4.2798,4.2796,4.2782,4.2832,4.2839,4.2875,4.2804,4.2958,4.2963,4.2968,4.3026,4.3037,4.3047,0,0,0,0,0,4.2721,4.2779,4.2763,4.2772,4.2808,4.2844,4.2848,4.2831,4.2801,4.2827,4.2823,4.2796,4.2868,4.2837,4.2845,4.2882,4.2955,4.2961,4.2967,4.3022,4.3035,4.3047,0,0,0,0,0,0,4.2778,4.2779,4.2762,4.2822,4.2833,4.2835,4.2867,4.2846,4.2865,4.2859,4.2837,4.2838,4.2889,4.2891,4.2857,4.2948,4.2906,4.2914,4.2945,4.2958,4.2968,4.2965,4.2807,0,0,0,0,0,4.2798,4.2828,4.2827,4.288,4.2887,4.2876,4.2891,4.2877,4.2888,4.2892,4.2891,4.2901,4.2926,4.2942,4.2965,4.3027,4.3026,4.3057,4.3067,4.3075,4.3081,4.3112,4.3125,4.299,4.299,4.2989,0,0,4.2838,4.2843,4.2863,4.2892,4.2898,4.2929,4.288,4.2915,4.2937,4.2897,4.2941,4.2941,4.2951,4.3006,4.303,4.3008,4.3119,4.3083,4.309,4.3091,4.312,4.3132,4.3144,4.2994,4.2993,4.2992,0,0,4.2927,4.2935,4.2979,4.2987,4.2998,4.299,4.3001,4.3006,4.3004,4.3049,4.3019,4.3044,4.3087,4.3094,4.3104,4.3195,4.317,4.3203,4.3255,4.3286,4.3296,4.3305,4.3335,4.3347,4.321,4.321,4.321,0,4.2976,4.3021,4.3004,4.304,4.3052,4.3019,4.3062,4.307,4.3088,4.3097,4.3073,4.3125,4.313,4.3184,4.3207,4.3216,4.3226,4.3201,4.3296,4.3305,4.3314,4.3342,4.3354,4.3214,4.3213,4.3213,4.3213,0,4.3079,4.3111,4.3145,4.3163,4.318,4.322,4.3207,4.3226,4.321,4.3205,4.325,4.3254,4.3275,4.3288,4.3273,4.334,4.3326,4.33,4.3257,4.3331,4.3357,4.3368,4.3219,4.3218,4.3217,4.3216,0,0,4.3204,4.3211,4.3224,4.323,4.324,4.3263,4.3301,4.3323,4.3338,4.3352,4.3381,4.3418,4.3393,4.3404,4.339,4.3417,4.3486,4.3387,4.3387,4.3403,4.3557,4.3575,4.3588,4.3471,4.3473,4.3474,4.3555,0,4.3289,4.3354,4.3339,4.3402,4.343,4.3398,4.343,4.3439,4.3435,4.3457,4.3453,4.3478,4.3445,4.3451,4.3477,4.3472,4.3516,4.3467,4.3495,4.3497,4.3491,4.3602,4.3621,4.3697,4.3566,4.3567,4.3569,0,4.3398,4.3415,4.3481,4.3484,4.3496,4.3525,4.3542,4.3565,4.3573,4.3569,4.3581,4.3561,4.3596,4.3555,4.3602,4.3569,4.358,4.358,4.3582,4.3582,4.3535,4.3602,4.3722,4.3732,4.3585,4.3584,4.3583,0,4.3478,4.3518,4.3562,4.357,4.3575,4.3596,4.36,4.3606,4.3619,4.3635,4.3643,4.3662,4.3672,4.3687,4.3673,4.3645,4.3722,4.368,4.3717,4.3717,4.3732,4.3731,4.3853,4.3744,4.3744,4.3744,4.3744,0,4.3574,4.3615,4.3598,4.3625,4.367,4.3652,4.3696,4.3695,4.3701,4.3726,4.3701,4.3724,4.3705,4.3727,4.3717,4.3756,4.3762,4.3757,4.3753,4.3758,4.3758,4.3763,4.3756,4.3747,4.3746,4.3746,4.3745,0,4.3671,4.3661,4.3707,4.3709,4.371,4.3742,4.3743,4.3767,4.3762,4.3793,4.38,4.3791,4.3815,4.3803,4.3829,4.3821,4.3872,4.3862,4.3869,4.3865,4.3902,4.3898,4.4029,4.4044,4.3928,4.393,4.393,0,4.3731,4.3762,4.3766,4.3782,4.3787,4.3812,4.3825,4.3809,4.3823,4.3835,4.3857,4.388,4.3896,4.3936,4.3931,4.395,4.3939,4.3984,4.3942,4.3945,4.3937,4.3934,4.3936,4.3992,4.3993,4.3994,4.3995,0,4.3838,4.3832,4.3853,4.3871,4.3888,4.3902,4.3914,4.3927,4.3911,4.3929,4.3954,4.3967,4.3992,4.4014,4.403,4.4032,4.401,4.4009,4.4018,4.4021,4.4023,4.402,4.3889,4.4005,4.4004,4.4003,4.4003,4.4002,4.3917,4.3941,4.3948,4.3971,4.3979,4.399,4.4012,4.4009,4.403,4.4049,4.4039,4.4067,4.4073,4.4093,4.4098,4.4119,4.4101,4.4115,4.4118,4.4121,4.4125,4.4022,4.4122,4.4122,4.4122,4.4121,4.4121,0,4.402,4.4023,4.4045,4.4061,4.4079,4.4058,4.407,4.4086,4.4111,4.4119,4.4136,4.4164,4.4185,4.4182,4.42,4.4217,4.4208,4.4223,4.422,4.422,4.4141,4.413,4.423,4.423,4.423,4.423,4.423,4.423,4.4076,4.4116,4.411,4.4153,4.4155,4.4183,4.4191,4.4201,4.4207,4.4239,4.4256,4.4254,4.4257,4.4276,4.4293,4.4292,4.4299,4.4317,4.4311,4.4237,4.4226,4.4216,4.4205,4.4319,4.4319,4.4388,4.4389,4.4389]}]]